SCP
-0 0 0 0 0 0 0 0 0 0 0 0 0 -0 -0 -0 -0 -0 -0 0 0 0 -0 -0 0 0 0 -0 -0 -0 -0 0
0 0 0 0 0 0 0 0 0 0 0 0 0 0 0 0 0 -0 0 0 0 0 0 0 0 0 -0 -0 -0 -0 0 -0
0 0 0 0 0 0 0 0 0 0 0 0 0 0 0 0 0 0 0 0 0 0 0 0 0 0 -0 -0 -0 0 0 -0
0 0 0 0 0 0 0 0 0 0 0 1 1 1 0 0 0 0 0 0 0 0 0 0 0 0 0 -0 0 0 -0 0
0 0 0 0 0 0 0 0 0 0 1 1 1 1 1 1 0 0 0 0 0 0 0 0 0 0 0 0 0 0 -0 -0
0 0 0 0 0 0 0 0 0 0 1 1 1 1 1 0 0 0 0 0 0 0 0 0 0 0 0 0 0 0 -0 -0
0 0 0 0 1 0 1 1 0 0 0 0 0 0 0 0 0 0 0 0 0 0 0 0 0 0 0 0 0 0 -0 0
0 0 0 2 2 0 1 1 1 0 0 0 0 0 0 0 0 0 0 0 0 0 0 0 0 0 0 0 0 0 0 0
0 0 1 2 2 1 1 2 1 1 1 0 0 0 1 0 0 0 0 0 0 0 0 0 0 0 -0 0 0 0 -0 0
0 0 0 1 2 2 3 1 1 3 2 2 2 1 0 0 0 0 0 0 0 0 0 0 0 0 0 0 1 0 0 0
0 0 0 0 1 1 1 2 2 2 3 3 2 3 1 1 1 0 0 0 0 0 0 0 0 0 0 0 0 1 0 1
0 0 0 0 1 1 1 1 1 1 2 1 2 3 2 1 1 1 0 1 0 0 0 0 0 0 0 0 0 0 0 1
0 0 0 0 0 1 1 1 1 2 4 4 3 1 2 1 1 1 0 1 1 1 0 0 0 0 0 0 0 1 1 1
0 0 0 0 0 1 1 1 0 1 1 2 2 2 2 1 1 1 1 1 2 1 1 1 1 0 0 0 0 0 1 2
0 0 0 0 0 1 1 0 0 0 0 1 1 1 2 1 1 1 1 1 2 2 1 0 2 1 0 1 0 0 1 1
0 0 0 0 1 1 0 0 0 0 0 0 0 1 1 1 1 1 1 1 1 1 2 2 2 1 1 0 1 2 2 1
0 0 0 1 2 1 0 0 0 0 0 0 0 0 0 0 1 1 1 1 1 1 1 2 1 1 1 1 2 1 1 1
0 0 0 1 2 1 0 1 1 0 0 0 0 0 0 0 0 1 0 0 1 1 0 1 1 1 0 0 2 1 1 1
0 0 0 1 1 1 1 1 1 0 0 0 0 0 0 0 0 0 1 1 1 0 1 1 1 1 1 1 3 1 1 1
Wind_Speed_500mb
29 27 29 28 27 27 28 29 31 31 28 26 22 19 18 15 11 8 8 9 11 7 8 9 11 9 7 8 10 14 20 31
29 25 27 27 26 26 27 29 30 31 30 28 25 21 19 17 13 10 8 7 9 8 7 7 8 9 11 10 11 14 19 26
28 26 26 25 24 24 25 28 29 30 29 28 26 24 23 21 17 14 12 10 8 7 7 7 7 9 11 13 12 13 15 22
25 27 23 23 24 24 24 27 29 30 30 29 28 27 26 24 21 18 15 13 10 8 6 6 7 10 12 14 12 13 17 21
23 20 24 25 23 24 25 27 27 28 29 30 31 31 30 28 24 21 19 17 14 11 9 8 7 10 12 13 11 10 14 19
20 21 20 18 21 23 20 28 28 28 30 33 34 35 33 26 25 23 21 20 18 15 13 11 11 11 12 11 10 9 10 7
24 24 24 21 22 22 21 23 27 29 30 33 34 36 34 24 21 19 26 23 22 20 17 16 15 14 10 8 7 8 14 8
33 29 23 26 22 24 21 18 15 20 21 26 30 31 33 26 28 27 23 31 28 25 20 20 20 18 14 25 14 10 10 9
27 18 26 27 29 27 25 24 21 22 22 22 26 32 30 33 32 27 28 18 18 22 21 21 17 17 18 20 19 14 15 14
24 20 26 27 25 26 34 26 27 27 29 26 28 29 31 29 31 29 27 27 23 23 20 25 22 22 22 23 25 26 20 17
31 33 26 26 25 22 18 23 25 28 28 31 27 29 29 31 32 29 28 27 26 25 24 23 23 25 24 24 27 27 31 21
27 27 29 25 25 24 21 22 23 23 32 35 25 25 29 36 34 35 29 29 26 25 25 25 24 26 24 26 26 25 32 26
31 28 28 25 25 24 19 19 22 26 29 30 23 23 32 32 33 33 30 34 29 27 26 25 24 26 25 27 29 33 35 38
35 35 30 28 25 21 18 17 17 17 19 19 26 18 22 24 30 32 29 30 28 29 31 28 31 29 30 29 31 37 43 40
37 37 37 32 28 27 21 18 13 19 20 19 19 15 19 23 19 22 30 27 39 33 37 32 34 33 37 34 33 40 39 14
39 39 44 42 38 35 31 25 18 17 17 21 22 16 15 20 23 23 23 28 31 39 50 30 31 35 43 38 36 25 33 27
43 43 43 47 47 42 35 33 23 17 16 15 18 20 19 17 18 17 18 20 24 26 31 36 46 37 52 49 42 35 17 29
44 41 45 53 52 51 39 36 31 21 22 16 21 20 24 22 22 23 23 23 25 27 24 31 38 54 52 48 41 33 21 23
45 39 43 50 52 47 52 37 38 35 29 27 21 16 17 16 21 24 27 28 31 29 28 30 33 40 51 57 44 46 51 36
Wind_Direction_500mb
142 152 153 152 154 159 162 170 179 183 187 189 190 188 186 190 190 187 173 155 137 122 107 99 86 80 90 100 101 102 87 79
143 162 160 157 157 162 169 177 183 189 193 197 200 202 200 200 207 205 206 184 155 145 126 112 86 91 100 103 101 104 96 88
149 153 163 163 162 167 174 183 190 197 203 207 211 212 211 206 207 220 220 210 188 166 145 132 103 108 109 110 105 102 103 95
150 154 165 173 175 177 181 187 195 203 208 213 218 219 217 214 212 220 227 226 213 198 170 164 133 129 125 123 114 98 106 111
156 167 165 174 184 189 194 194 198 204 209 212 214 216 217 218 217 218 227 231 229 216 200 188 171 153 143 139 131 115 114 114
176 175 179 183 186 179 195 202 203 208 210 211 211 212 214 218 224 226 222 229 238 224 215 202 199 185 174 164 154 126 124 101
186 198 202 190 193 184 195 224 211 214 218 216 215 216 211 201 226 224 242 230 233 232 222 216 209 204 204 214 174 142 128 164
217 208 215 185 199 195 203 218 205 210 206 212 207 210 213 209 211 208 237 244 231 229 229 224 217 209 195 216 192 189 194 208
239 236 211 208 217 211 211 219 221 218 212 214 215 215 208 196 214 213 216 222 218 230 202 229 221 211 217 225 252 211 190 220
256 232 227 225 212 223 206 222 226 226 222 229 219 219 208 214 215 219 216 214 220 217 221 217 214 226 219 216 245 257 184 217
246 242 232 212 216 222 217 218 224 232 242 216 226 219 217 214 215 214 218 222 221 220 225 224 227 225 222 225 230 249 234 250
236 229 223 220 217 226 224 221 226 226 233 260 209 213 220 225 218 208 213 222 225 230 227 228 226 231 231 228 235 217 228 228
226 214 210 219 223 238 221 215 226 223 222 223 223 227 223 219 214 224 220 211 219 230 231 231 236 235 240 236 237 237 237 222
219 213 213 213 219 217 205 207 191 215 222 223 225 198 217 215 220 213 217 216 216 224 235 233 235 235 239 235 241 240 245 235
222 216 206 206 200 205 203 197 200 216 216 225 230 231 225 204 210 227 222 236 224 213 228 239 242 243 243 242 244 244 252 252
218 214 215 197 203 196 194 196 204 213 215 225 224 201 229 205 210 221 222 238 233 238 228 215 228 242 242 246 247 241 240 255
219 214 215 197 202 197 200 206 222 213 213 209 211 205 208 212 213 218 219 240 245 245 252 247 240 232 249 238 228 229 242 240
214 213 207 200 203 211 197 208 213 202 217 219 232 232 230 224 230 232 234 239 249 264 255 254 246 241 250 262 222 223 220 230
217 212 210 205 202 212 201 207 211 211 223 230 223 224 186 212 233 241 247 244 248 245 250 259 266 245 233 235 237 227 234 247
Wind_Speed_850mb
29 27 29 28 27 27 28 29 31 31 28 26 22 19 18 15 11 8 8 9 11 7 8 9 11 9 7 8 10 14 20 31
29 25 27 27 26 26 27 29 30 31 30 28 25 21 19 17 13 10 8 7 9 8 7 7 8 9 11 10 11 14 19 26
28 26 26 25 24 24 25 28 29 30 29 28 26 24 23 21 17 14 12 10 8 7 7 7 7 9 11 13 12 13 15 22
25 27 23 23 24 24 24 27 29 30 30 29 28 27 26 24 21 18 15 13 10 8 6 6 7 10 12 14 12 13 17 21
23 20 24 25 23 24 25 27 27 28 29 30 31 31 30 28 24 21 19 17 14 11 9 8 7 10 12 13 11 10 14 19
20 21 20 18 21 23 20 28 28 28 30 33 34 35 33 26 25 23 21 20 18 15 13 11 11 11 12 11 10 9 10 7
24 24 24 21 22 22 21 23 27 29 30 33 34 36 34 24 21 19 26 23 22 20 17 16 15 14 10 8 7 8 14 8
33 29 23 26 22 24 21 18 15 20 21 26 30 31 33 26 28 27 23 31 28 25 20 20 20 18 14 25 14 10 10 9
27 18 26 27 29 27 25 24 21 22 22 22 26 32 30 33 32 27 28 18 18 22 21 21 17 17 18 20 19 14 15 14
24 20 26 27 25 26 34 26 27 27 29 26 28 29 31 29 31 29 27 27 23 23 20 25 22 22 22 23 25 26 20 17
31 33 26 26 25 22 18 23 25 28 28 31 27 29 29 31 32 29 28 27 26 25 24 23 23 25 24 24 27 27 31 21
27 27 29 25 25 24 21 22 23 23 32 35 25 25 29 36 34 35 29 29 26 25 25 25 24 26 24 26 26 25 32 26
31 28 28 25 25 24 19 19 22 26 29 30 23 23 32 32 33 33 30 34 29 27 26 25 24 26 25 27 29 33 35 38
35 35 30 28 25 21 18 17 17 17 19 19 26 18 22 24 30 32 29 30 28 29 31 28 31 29 30 29 31 37 43 40
37 37 37 32 28 27 21 18 13 19 20 19 19 15 19 23 19 22 30 27 39 33 37 32 34 33 37 34 33 40 39 14
39 39 44 42 38 35 31 25 18 17 17 21 22 16 15 20 23 23 23 28 31 39 50 30 31 35 43 38 36 25 33 27
43 43 43 47 47 42 35 33 23 17 16 15 18 20 19 17 18 17 18 20 24 26 31 36 46 37 52 49 42 35 17 29
44 41 45 53 52 51 39 36 31 21 22 16 21 20 24 22 22 23 23 23 25 27 24 31 38 54 52 48 41 33 21 23
45 39 43 50 52 47 52 37 38 35 29 27 21 16 17 16 21 24 27 28 31 29 28 30 33 40 51 57 44 46 51 36
Wind_Direction_850mb
142 152 153 152 154 159 162 170 179 183 187 189 190 188 186 190 190 187 173 155 137 122 107 99 86 80 90 100 101 102 87 79
143 162 160 157 157 162 169 177 183 189 193 197 200 202 200 200 207 205 206 184 155 145 126 112 86 91 100 103 101 104 96 88
149 153 163 163 162 167 174 183 190 197 203 207 211 212 211 206 207 220 220 210 188 166 145 132 103 108 109 110 105 102 103 95
150 154 165 173 175 177 181 187 195 203 208 213 218 219 217 214 212 220 227 226 213 198 170 164 133 129 125 123 114 98 106 111
156 167 165 174 184 189 194 194 198 204 209 212 214 216 217 218 217 218 227 231 229 216 200 188 171 153 143 139 131 115 114 114
176 175 179 183 186 179 195 202 203 208 210 211 211 212 214 218 224 226 222 229 238 224 215 202 199 185 174 164 154 126 124 101
186 198 202 190 193 184 195 224 211 214 218 216 215 216 211 201 226 224 242 230 233 232 222 216 209 204 204 214 174 142 128 164
217 208 215 185 199 195 203 218 205 210 206 212 207 210 213 209 211 208 237 244 231 229 229 224 217 209 195 216 192 189 194 208
239 236 211 208 217 211 211 219 221 218 212 214 215 215 208 196 214 213 216 222 218 230 202 229 221 211 217 225 252 211 190 220
256 232 227 225 212 223 206 222 226 226 222 229 219 219 208 214 215 219 216 214 220 217 221 217 214 226 219 216 245 257 184 217
246 242 232 212 216 222 217 218 224 232 242 216 226 219 217 214 215 214 218 222 221 220 225 224 227 225 222 225 230 249 234 250
236 229 223 220 217 226 224 221 226 226 233 260 209 213 220 225 218 208 213 222 225 230 227 228 226 231 231 228 235 217 228 228
226 214 210 219 223 238 221 215 226 223 222 223 223 227 223 219 214 224 220 211 219 230 231 231 236 235 240 236 237 237 237 222
219 213 213 213 219 217 205 207 191 215 222 223 225 198 217 215 220 213 217 216 216 224 235 233 235 235 239 235 241 240 245 235
222 216 206 206 200 205 203 197 200 216 216 225 230 231 225 204 210 227 222 236 224 213 228 239 242 243 243 242 244 244 252 252
218 214 215 197 203 196 194 196 204 213 215 225 224 201 229 205 210 221 222 238 233 238 228 215 228 242 242 246 247 241 240 255
219 214 215 197 202 197 200 206 222 213 213 209 211 205 208 212 213 218 219 240 245 245 252 247 240 232 249 238 228 229 242 240
214 213 207 200 203 211 197 208 213 202 217 219 232 232 230 224 230 232 234 239 249 264 255 254 246 241 250 262 222 223 220 230
217 212 210 205 202 212 201 207 211 211 223 230 223 224 186 212 233 241 247 244 248 245 250 259 266 245 233 235 237 227 234 247